Location: Berduj
(43.0019°N, 22.3781°E)
Time: 20:03:03
(UTC+00:00)

Cosmos 1812 Rocket - Pass Details

Date: 19 October 2019
Orbit: 605 x 632 km, 82.5° (Epoch: 19 November)

Event Time Altitude Azimuth Distance (km) Brightness Sun altitude
Rises 16:52:43 0° 169° (S) 2,885 6.9 -13.6°
Reaches altitude 10° 16:55:01 10° 162° (SSE) 1,988 6.0 -14.0°
Maximum altitude 16:59:09 42° 92° (E) 903 3.9 -14.8°
Drops below altitude 10° 17:03:22 10° 22° (NNE) 2,016 6.0 -15.6°
Sets 17:05:42 0° 16° (NNE) 2,932 6.9 -16.0°
